timestamp,wind_dir_avg,wind_spd_max_dir,wind_spd_avg,wind_spd_gust,battery_voltage,lat,long
2017-09-28 00:00:00+00:00,188.0,184.0,4.12,4.76,12.6,47.59359,-54.27349
2017-09-28 00:10:00+00:00,185.0,186.0,4.38,5.5,12.6,47.59359,-54.27349
2017-09-28 00:20:00+00:00,179.0,184.0,4.07,5.04,12.7,47.59359,-54.27349
2017-09-28 00:30:00+00:00,167.0,169.0,3.84,4.59,12.7,47.59359,-54.27349
2017-09-28 00:40:00+00:00,172.0,180.0,3.03,3.6,12.7,47.59359,-54.27349
2017-09-28 00:50:00+00:00,177.0,176.0,2.68,3.08,12.7,47.59359,-54.27349
2017-09-28 01:00:00+00:00,185.0,195.0,3.29,3.97,12.6,47.59359,-54.27349
2017-09-28 01:10:00+00:00,162.0,160.0,4.13,4.73,12.6,47.59359,-54.27349
2017-09-28 01:20:00+00:00,158.0,156.0,4.45,5.19,12.7,47.59359,-54.27349
2017-09-28 01:30:00+00:00,168.0,162.0,5.66,6.65,12.7,47.59359,-54.27349
2017-09-28 01:40:00+00:00,165.0,172.0,4.88,5.54,12.7,47.59359,-54.27349
2017-09-28 01:50:00+00:00,147.0,141.0,4.97,5.85,12.7,47.59359,-54.27349
2017-09-28 02:00:00+00:00,163.0,166.0,5.57,6.43,12.6,47.59359,-54.27349
2017-09-28 02:10:00+00:00,168.0,165.0,6.37,7.41,12.6,47.59359,-54.27349
2017-09-28 02:20:00+00:00,169.0,165.0,6.29,8.03,12.6,47.59359,-54.27349
2017-09-28 02:30:00+00:00,169.0,165.0,6.5,7.41,12.6,47.59359,-54.27349
2017-09-28 02:40:00+00:00,169.0,172.0,5.18,6.0,12.6,47.59359,-54.27349
2017-09-28 02:50:00+00:00,175.0,180.0,6.76,8.47,12.7,47.59359,-54.27349
2017-09-28 03:00:00+00:00,161.0,164.0,7.26,8.06,12.6,47.59359,-54.27349
2017-09-28 03:10:00+00:00,169.0,181.0,6.65,8.09,12.6,47.59359,-54.27349
2017-09-28 03:20:00+00:00,165.0,166.0,6.74,7.94,12.6,47.59359,-54.27349
2017-09-28 03:30:00+00:00,162.0,162.0,5.39,6.96,12.6,47.59359,-54.27349
2017-09-28 03:40:00+00:00,190.0,191.0,6.92,9.58,12.6,47.59359,-54.27349
2017-09-28 03:50:00+00:00,180.0,178.0,8.14,9.82,12.6,47.59359,-54.27349
2017-09-28 04:00:00+00:00,179.0,178.0,8.82,10.87,12.6,47.59359,-54.27349
2017-09-28 04:10:00+00:00,182.0,174.0,8.98,10.18,12.6,47.59359,-54.27349
2017-09-28 04:20:00+00:00,175.0,186.0,9.67,11.25,12.6,47.59359,-54.27349
2017-09-28 04:30:00+00:00,173.0,173.0,7.23,8.22,12.6,47.59359,-54.27349
2017-09-28 04:40:00+00:00,177.0,178.0,5.94,7.26,12.6,47.59359,-54.27349
2017-09-28 04:50:00+00:00,184.0,187.0,9.0,10.6,12.6,47.59359,-54.27349
2017-09-28 05:00:00+00:00,178.0,170.0,8.45,9.54,12.6,47.59359,-54.27349
2017-09-28 05:10:00+00:00,188.0,198.0,9.53,10.92,12.6,47.59359,-54.27349
2017-09-28 05:20:00+00:00,188.0,185.0,9.62,10.58,12.6,47.59359,-54.27349
2017-09-28 05:30:00+00:00,182.0,177.0,8.24,9.86,12.6,47.59359,-54.27349
2017-09-28 05:40:00+00:00,180.0,176.0,7.29,8.13,12.6,47.59359,-54.27349
2017-09-28 05:50:00+00:00,180.0,184.0,5.5,6.02,12.6,47.59359,-54.27349
2017-09-28 06:00:00+00:00,188.0,183.0,5.03,5.83,12.6,47.59359,-54.27349
2017-09-28 06:10:00+00:00,195.0,198.0,5.23,5.9,12.5,47.59359,-54.27349
2017-09-28 06:20:00+00:00,191.0,193.0,5.54,6.1,12.6,47.59359,-54.27349
2017-09-28 06:30:00+00:00,182.0,179.0,5.32,5.66,12.6,47.59359,-54.27349
2017-09-28 06:40:00+00:00,186.0,184.0,5.74,6.34,12.6,47.59359,-54.27349
2017-09-28 06:50:00+00:00,196.0,201.0,5.56,6.27,12.6,47.59359,-54.27349
2017-09-28 07:00:00+00:00,198.0,196.0,6.75,7.58,12.6,47.59359,-54.27349
2017-09-28 07:10:00+00:00,203.0,200.0,9.14,11.39,12.5,47.59359,-54.27349
2017-09-28 07:20:00+00:00,199.0,200.0,7.28,7.97,12.6,47.59359,-54.27349
2017-09-28 07:30:00+00:00,208.0,210.0,6.94,7.97,12.6,47.59359,-54.27349
2017-09-28 07:40:00+00:00,214.0,214.0,8.11,9.01,12.6,47.59359,-54.27349
2017-09-28 07:50:00+00:00,208.0,199.0,9.66,13.86,12.6,47.59359,-54.27349
2017-09-28 08:00:00+00:00,215.0,216.0,7.87,8.77,12.6,47.59359,-54.27349
2017-09-28 08:10:00+00:00,210.0,208.0,9.21,10.11,12.5,47.59359,-54.27349
2017-09-28 08:20:00+00:00,222.0,215.0,8.34,9.57,12.6,47.59359,-54.27349
2017-09-28 08:30:00+00:00,223.0,229.0,8.48,9.39,12.6,47.59359,-54.27349
2017-09-28 08:40:00+00:00,233.0,236.0,10.22,11.93,12.6,47.59359,-54.27349
2017-09-28 08:50:00+00:00,224.0,222.0,10.19,11.4,12.6,47.59359,-54.27349
2017-09-28 09:00:00+00:00,229.0,230.0,11.07,13.22,12.6,47.59359,-54.27349
2017-09-28 09:10:00+00:00,233.0,236.0,8.77,10.53,12.5,47.59359,-54.27349
2017-09-28 09:20:00+00:00,230.0,234.0,10.06,12.53,12.6,47.59359,-54.27349
2017-09-28 09:30:00+00:00,227.0,227.0,10.75,13.04,12.6,47.59359,-54.27349
2017-09-28 09:40:00+00:00,224.0,219.0,9.39,10.57,12.6,47.59359,-54.27349
2017-09-28 09:50:00+00:00,224.0,219.0,9.07,10.9,12.6,47.59359,-54.27349
2017-09-28 10:00:00+00:00,225.0,221.0,9.05,10.69,12.6,47.59359,-54.27349
2017-09-28 10:10:00+00:00,230.0,228.0,8.71,10.62,12.5,47.59359,-54.27349
2017-09-28 10:20:00+00:00,231.0,230.0,8.35,9.26,12.6,47.59359,-54.27349
2017-09-28 10:30:00+00:00,226.0,222.0,8.83,9.87,12.6,47.59359,-54.27349
2017-09-28 10:40:00+00:00,225.0,226.0,8.7,9.63,12.6,47.59359,-54.27349
2017-09-28 10:50:00+00:00,226.0,226.0,8.12,8.88,12.7,47.59359,-54.27349
2017-09-28 11:00:00+00:00,220.0,219.0,8.59,9.37,12.6,47.59359,-54.27349
2017-09-28 11:10:00+00:00,228.0,231.0,7.67,8.05,12.6,47.59359,-54.27349
2017-09-28 11:20:00+00:00,225.0,221.0,8.56,9.55,12.6,47.59359,-54.27349
2017-09-28 11:30:00+00:00,225.0,227.0,8.04,9.26,12.6,47.59359,-54.27349
2017-09-28 11:40:00+00:00,222.0,220.0,7.65,8.72,12.8,47.59359,-54.27349
2017-09-28 11:50:00+00:00,218.0,219.0,8.07,8.77,13.0,47.59359,-54.27349
2017-09-28 12:00:00+00:00,225.0,229.0,8.8,9.68,13.0,47.59359,-54.27349
2017-09-28 12:10:00+00:00,217.0,216.0,9.06,9.9,13.0,47.59359,-54.27349
2017-09-28 12:20:00+00:00,214.0,214.0,9.5,10.52,13.3,47.59359,-54.27349
2017-09-28 12:30:00+00:00,225.0,227.0,8.84,9.58,13.4,47.59359,-54.27349
2017-09-28 12:40:00+00:00,228.0,229.0,9.78,11.66,13.4,47.59359,-54.27349
2017-09-28 12:50:00+00:00,224.0,224.0,11.62,13.64,13.3,47.59359,-54.27349
2017-09-28 13:00:00+00:00,228.0,223.0,11.38,13.1,13.2,47.59359,-54.27349
2017-09-28 13:10:00+00:00,229.0,231.0,10.67,12.45,13.0,47.59359,-54.27349
2017-09-28 13:20:00+00:00,221.0,223.0,9.78,11.68,13.1,47.59359,-54.27349
2017-09-28 13:30:00+00:00,231.0,232.0,8.77,10.18,13.1,47.59359,-54.27349
2017-09-28 13:40:00+00:00,225.0,231.0,7.89,8.52,13.1,47.59359,-54.27349
2017-09-28 13:50:00+00:00,227.0,233.0,7.16,8.42,13.0,47.59359,-54.27349
2017-09-28 14:00:00+00:00,219.0,219.0,8.78,9.41,13.0,47.59359,-54.27349
2017-09-28 14:10:00+00:00,222.0,226.0,8.27,8.98,12.9,47.59359,-54.27349
2017-09-28 14:20:00+00:00,219.0,218.0,8.53,9.42,13.0,47.59359,-54.27349
2017-09-28 14:30:00+00:00,212.0,212.0,8.82,9.49,12.9,47.59359,-54.27349
2017-09-28 14:40:00+00:00,212.0,212.0,10.26,11.42,13.0,47.59359,-54.27349
2017-09-28 14:50:00+00:00,217.0,219.0,9.91,10.74,13.0,47.59359,-54.27349
2017-09-28 15:00:00+00:00,231.0,234.0,8.14,9.25,12.9,47.59359,-54.27349
2017-09-28 15:10:00+00:00,222.0,226.0,7.78,9.51,12.8,47.59359,-54.27349
2017-09-28 15:20:00+00:00,219.0,219.0,6.18,6.64,12.9,47.59359,-54.27349
2017-09-28 15:30:00+00:00,221.0,219.0,5.23,5.76,13.0,47.59359,-54.27349
2017-09-28 15:40:00+00:00,223.0,228.0,6.29,7.01,13.0,47.59359,-54.27349
2017-09-28 15:50:00+00:00,233.0,222.0,5.3,6.74,13.1,47.59359,-54.27349
2017-09-28 16:00:00+00:00,241.0,234.0,7.76,9.03,13.1,47.59359,-54.27349
2017-09-28 16:10:00+00:00,240.0,235.0,7.61,8.69,13.0,47.59359,-54.27349
2017-09-28 16:20:00+00:00,234.0,240.0,7.32,8.94,13.1,47.59359,-54.27349
2017-09-28 16:30:00+00:00,226.0,229.0,8.86,10.0,13.1,47.59359,-54.27349
2017-09-28 16:40:00+00:00,210.0,210.0,8.51,9.52,13.1,47.59359,-54.27349
2017-09-28 16:50:00+00:00,226.0,227.0,6.94,8.24,13.1,47.59359,-54.27349
2017-09-28 17:00:00+00:00,218.0,220.0,10.04,10.93,13.0,47.59359,-54.27349
2017-09-28 17:10:00+00:00,220.0,222.0,10.95,12.06,13.0,47.59359,-54.27349
2017-09-28 17:20:00+00:00,224.0,226.0,11.27,12.58,13.0,47.59359,-54.27349
2017-09-28 17:30:00+00:00,225.0,228.0,11.39,13.24,13.0,47.59359,-54.27349
2017-09-28 17:40:00+00:00,221.0,224.0,10.53,11.8,13.0,47.59359,-54.27349
2017-09-28 17:50:00+00:00,223.0,220.0,12.16,14.41,13.0,47.59359,-54.27349
2017-09-28 18:00:00+00:00,223.0,233.0,11.76,14.7,13.0,47.59359,-54.27349
2017-09-28 18:10:00+00:00,224.0,231.0,11.82,13.89,13.0,47.59359,-54.27349
2017-09-28 18:20:00+00:00,219.0,219.0,12.03,13.53,13.0,47.59359,-54.27349
2017-09-28 18:30:00+00:00,230.0,230.0,14.07,15.94,13.0,47.59359,-54.27349
2017-09-28 18:40:00+00:00,222.0,222.0,13.21,15.51,13.0,47.59359,-54.27349
2017-09-28 18:50:00+00:00,227.0,226.0,14.03,15.8,13.0,47.59359,-54.27349
2017-09-28 19:00:00+00:00,228.0,227.0,14.3,16.28,12.9,47.59359,-54.27349
2017-09-28 19:10:00+00:00,234.0,233.0,13.11,15.64,12.7,47.59359,-54.27349
2017-09-28 19:20:00+00:00,231.0,229.0,11.61,13.78,12.8,47.59359,-54.27349
2017-09-28 19:30:00+00:00,222.0,224.0,16.06,18.36,12.8,47.59359,-54.27349
2017-09-28 19:40:00+00:00,222.0,221.0,15.07,17.01,12.8,47.59359,-54.27349
2017-09-28 19:50:00+00:00,217.0,214.0,16.24,18.3,12.8,47.59359,-54.27349
2017-09-28 20:00:00+00:00,219.0,219.0,17.16,19.93,12.7,47.59359,-54.27349
2017-09-28 20:10:00+00:00,219.0,215.0,17.92,20.24,12.6,47.59359,-54.27349
2017-09-28 20:20:00+00:00,219.0,221.0,17.05,19.46,12.7,47.59359,-54.27349
2017-09-28 20:30:00+00:00,221.0,219.0,16.81,19.59,12.7,47.59359,-54.27349
2017-09-28 20:40:00+00:00,221.0,220.0,15.14,18.57,12.7,47.59359,-54.27349
2017-09-28 20:50:00+00:00,218.0,224.0,14.44,16.98,12.7,47.59359,-54.27349
2017-09-28 21:00:00+00:00,227.0,222.0,12.69,14.77,12.6,47.59359,-54.27349
2017-09-28 21:10:00+00:00,219.0,219.0,10.87,13.62,12.6,47.59359,-54.27349
2017-09-28 21:20:00+00:00,239.0,246.0,11.93,15.61,12.6,47.59359,-54.27349
2017-09-28 21:30:00+00:00,233.0,228.0,11.63,14.33,12.6,47.59359,-54.27349
2017-09-28 21:40:00+00:00,233.0,223.0,14.38,17.79,12.6,47.59359,-54.27349
2017-09-28 21:50:00+00:00,227.0,221.0,14.42,17.25,12.6,47.59359,-54.27349
2017-09-28 22:00:00+00:00,232.0,230.0,14.26,16.4,12.6,47.59359,-54.27349
2017-09-28 22:10:00+00:00,228.0,226.0,14.53,16.72,12.6,47.59359,-54.27349
2017-09-28 22:20:00+00:00,228.0,224.0,15.02,17.33,12.6,47.59359,-54.27349
2017-09-28 22:30:00+00:00,230.0,231.0,13.51,15.48,12.6,47.59359,-54.27349
2017-09-28 22:40:00+00:00,233.0,232.0,13.17,14.99,12.6,47.59359,-54.27349
2017-09-28 22:50:00+00:00,227.0,222.0,13.23,14.61,12.6,47.59359,-54.27349
2017-09-28 23:00:00+00:00,227.0,225.0,12.95,14.74,12.6,47.59359,-54.27349
2017-09-28 23:10:00+00:00,241.0,242.0,12.15,14.24,12.5,47.59359,-54.27349
2017-09-28 23:20:00+00:00,230.0,231.0,11.23,12.66,12.6,47.59359,-54.27349
2017-09-28 23:30:00+00:00,244.0,235.0,10.7,12.93,12.6,47.59359,-54.27349
2017-09-28 23:40:00+00:00,232.0,230.0,12.03,14.2,12.6,47.59359,-54.27349
2017-09-28 23:50:00+00:00,232.0,234.0,9.67,11.22,12.6,47.59359,-54.27349
